Content
SEND FEEDBACK

Daily
Averages
Monthly
Summary
Thailand

BANGKOK, THAILAND


Home > Asia > Thailand
Elevation: 66 feet     Latitude: 13 44N     Longitude: 100 34E

WEATHER
 
SELECT A DAY
Number of Records: 235,382;   Date Range: 7/1/96 - 7/29/14
 
SHARE

PRINT THIS DATA

[ ← Previous Day ]
WEATHER ALMANAC - MAY 14, 2013
[ Next Day → ]
[ °C ]   °F
Weather ElementAverageHighLow
Temperature92.6 °F102.2 °F (2:00 pm)86 °F (3:30 am)
Dewpoint74.2 °F79 °F (1:00 am)69.8 °F (12:00 pm)
Humidity56 %79 % (3:30 am)30 % (1:00 pm)
Barometer29.69 in29.77 in (8:00 am)29.59 in (4:30 pm)
Wind Speed7.3 mph15 mph (5:30 pm)
Weather ElementAverage
Visibility6.2 mi
Wind DirectionWSW (233.8 °)

Weather ElementTotal
Precipitation---
Cooling Degree Days29.1 (Base 65)
Growing Degree Days44.1 (Base 50)
Averaged from 50 records on May 14, 2013
WEATHER CONDITIONS BREAKOUT
WIND DIRECTION BREAKOUT
WEATHER BY HOUR - MAY 14, 2013
[ °C ]   °F
Local TimeTemperatureDewpointHumidityBarometerVisibilityWind DirectionWind SpeedGust SpeedPrecipitationEventsConditions
12:30 AM87.8 °F78.8 °F75 %29.71 in6.2 miSSW (200°)8.1 mphMostly Cloudy
1:00 AM88.0 °F79.0 °F68 %29.73 in6.0 miSSW (200°)5.8 mphScattered Clouds
1:00 AM87.8 °F78.8 °F75 %29.71 in6.2 miSSW (200°)5.8 mphMostly Cloudy
1:30 AM87.8 °F78.8 °F75 %29.71 in6.2 miSW (220°)8.1 mphMostly Cloudy
2:00 AM87.8 °F78.8 °F75 %29.71 in6.2 miSSW (210°)8.1 mphMostly Cloudy
2:30 AM87.8 °F78.8 °F75 %29.68 in6.2 miWest (260°)6.9 mphMostly Cloudy
3:30 AM86.0 °F78.8 °F79 %29.68 in6.2 miSSW (210°)3.5 mphScattered Clouds
4:00 AM86.0 °F77.0 °F74 %29.68 in6.2 miSW (230°)3.5 mphScattered Clouds
4:30 AM86.0 °F77.0 °F74 %29.68 in6.2 miSSW (210°)3.5 mphScattered Clouds
5:00 AM86.0 °F77.0 °F74 %29.68 in6.2 miWSW (240°)3.5 mphScattered Clouds
5:30 AM86.0 °F75.2 °F70 %29.71 in6.2 miWSW (250°)4.6 mphScattered Clouds
6:00 AM86.0 °F75.2 °F70 %29.71 in6.2 miWSW (240°)4.6 mphScattered Clouds
6:30 AM86.0 °F75.2 °F70 %29.71 in6.2 miSW (230°)3.5 mphMostly Cloudy
7:00 AM87.0 °F74.0 °F58 %29.75 in6.0 miWSW (240°)3.5 mphScattered Clouds
7:00 AM86.0 °F75.2 °F70 %29.74 in6.2 miWSW (240°)3.5 mphMostly Cloudy
7:30 AM87.8 °F73.4 °F62 %29.74 in6.2 miWNW (300°)3.5 mphMostly Cloudy
8:00 AM87.8 °F73.4 °F62 %29.77 in6.2 miWNW (290°)4.6 mphMostly Cloudy
8:30 AM89.6 °F73.4 °F59 %29.77 in6.2 miWSW (240°)4.6 mphMostly Cloudy
9:00 AM89.6 °F73.4 °F59 %29.77 in6.2 miWest (270°)4.6 mphMostly Cloudy
9:30 AM91.4 °F71.6 °F52 %29.77 in6.2 miNorth (360°)6.9 mphMostly Cloudy
10:00 AM93.2 °F71.6 °F49 %29.77 in6.2 miENE (60°)3.5 mphMostly Cloudy
10:30 AM93.2 °F71.6 °F49 %29.74 in6.2 miNorth (360°)8.1 mphMostly Cloudy
11:00 AM95.0 °F71.6 °F47 %29.74 in6.2 miNorth (360°)4.6 mphMostly Cloudy
11:30 AM96.8 °F71.6 °F44 %29.74 in6.2 miWSW (240°)6.9 mphScattered Clouds
12:00 PM96.8 °F69.8 °F41 %29.74 in6.2 miWSW (240°)9.2 mphScattered Clouds
12:30 PM98.6 °F69.8 °F39 %29.71 in6.2 miWSW (240°)6.9 mphScattered Clouds
1:00 PM99.0 °F70.0 °F30 %29.71 in6.0 miNorth3.5 mphScattered Clouds
1:00 PM98.6 °F69.8 °F39 %29.71 in6.2 miNorth (360°)2.3 mphScattered Clouds
1:30 PM100.4 °F69.8 °F37 %29.68 in6.2 miWSW (240°)10.4 mphScattered Clouds
2:00 PM102.2 °F71.6 °F37 %29.65 in6.2 miSouth (180°)5.8 mphScattered Clouds
2:30 PM102.2 °F71.6 °F37 %29.65 in6.2 miWSW (240°)10.4 mphScattered Clouds
3:00 PM102.2 °F71.6 °F37 %29.65 in6.2 miSSW (210°)9.2 mphScattered Clouds
3:30 PM102.2 °F71.6 °F37 %29.62 in6.2 miSSW (210°)10.4 mphScattered Clouds
4:00 PM102.2 °F69.8 °F35 %29.62 in6.2 miSSW (210°)8.1 mphScattered Clouds
4:30 PM100.4 °F69.8 °F37 %29.59 in6.2 miSSW (210°)10.4 mphScattered Clouds
5:00 PM100.4 °F69.8 °F37 %29.59 in6.2 miSSW (210°)6.9 mphScattered Clouds
5:30 PM100.4 °F71.6 °F39 %29.59 in6.2 miWSW (240°)15.0 mphScattered Clouds
6:00 PM100.4 °F71.6 °F39 %29.62 in6.2 miWSW (240°)13.8 mphScattered Clouds
6:30 PM100.4 °F73.4 °F42 %29.62 in6.2 miWest (270°)15.0 mphScattered Clouds
7:00 PM94.0 °F75.0 °F45 %29.65 in6.0 miSSW (210°)11.5 mphScattered Clouds
7:00 PM95.0 °F75.2 °F53 %29.65 in6.2 miSSW (210°)11.5 mphScattered Clouds
7:30 PM93.2 °F75.2 °F56 %29.65 in6.2 miWSW (250°)8.1 mphScattered Clouds
8:00 PM89.6 °F75.2 °F62 %29.65 in6.2 miWSW (240°)6.9 mphScattered Clouds
8:30 PM89.6 °F75.2 °F62 %29.68 in6.2 miSW (230°)6.9 mphScattered Clouds
9:00 PM89.6 °F77.0 °F66 %29.68 in6.2 miWSW (240°)5.8 mphScattered Clouds
9:30 PM89.6 °F77.0 °F66 %29.71 in6.2 miSSW (210°)9.2 mphScattered Clouds
10:00 PM89.6 °F77.0 °F66 %29.71 in6.2 miWSW (240°)10.4 mphScattered Clouds
10:30 PM89.6 °F77.0 °F66 %29.71 in6.2 miWSW (240°)9.2 mphScattered Clouds
11:00 PM89.6 °F77.0 °F66 %29.71 in6.2 miSW (220°)11.5 mphScattered Clouds
11:30 PM89.6 °F77.0 °F66 %29.71 in6.2 miWSW (240°)10.4 mphScattered Clouds
Hourly data recorded from VTBD, located miles away from Bangkok, Thailand







STORIES FROM OUR PARTNERS